Location: Village de las Huertas
(35.3014°N, 106.4095°W)
Time: 17:41:58
(UTC+00:00)

Cosmos 1300 - Pass Details

Date: 29 October 2020
Orbit: 511 x 513 km, 82.5° (Epoch: 24 November)

Event Time Altitude Azimuth Distance (km) Brightness Sun altitude
Exits shadow 12:46:08 - 332° (NNW) 2,683 6.0 -8.5°
Rises 12:46:17 0° 331° (NNW) 2,630 5.9 -8.5°
Reaches altitude 10° 12:49:07 10° 308° (NW) 1,737 4.8 -7.9°
Maximum altitude 12:51:21 15° 272° (W) 1,437 4.3 -7.5°
Drops below altitude 10° 12:53:35 10° 236° (SW) 1,729 5.0 -7.0°
Sets 12:56:24 0° 213° (SSW) 2,608 6.1 -6.5°
